[[{"header":{"parameterUnit":"m.s-1","parameterCategory":1,"la1":30.2991,"la2":30.254,"lo1":-89.0895,"lo2":-89.0444,"dy":0.0017,"dx":0.0017,"nx":28,"ny":28,"refTime":"2024-02-04T09:00:00:Z","depth":0,"parameterNumber":2,"parameterNumberName":"U-component_of_WINDS"},"data":[0,0,0,0,0,0,0,0,0,0,0,0,0,0,0,0,0,0,0,0,0,0,0,0,0,0,0,0,0,0,0,0,0,0,0,0,0,0,0,0,0,0,0,0,0,0,0,0,0,0,0,0,0,0,0,0,0,0,0.9733,0.9732,0,0.9633,0.9632,0.9631,0.9582,0.9582,0.9582,0.9582,0.9476,0.9473,0.947,0,0,0,0,0,0,0,0,0,0,0,0,0,0.9875,0.9872,0.9733,0.9731,0.973,0.9634,0.9632,0.9631,0.9582,0.9582,0.9582,0.9582,0.9477,0.9473,0.947,0,0,0,0,0,0,0,0,0,0,0,0,0,0.9798,0.9872,0.9733,0.9694,0.969,0.9634,0.9632,0.9631,0.9582,0.9582,0.9582,0.9582,0.9478,0.9474,0.9469,0.9443,0,0,0.9457,0.9455,0,0,0,0,0,0,0,0,0.9802,0.9793,0.9701,0.9697,0.9692,0.962,0.9643,0.9568,0.9582,0.9623,0.9582,0.9582,0.9523,0.9515,0.9497,0.9438,0.9434,0.9456,0.9454,0.9452,0.9451,0,0,0,0,0,0,0,0.9808,0.9797,0.9693,0.97,0.9694,0.968,0.9669,0.9629,0.9574,0.9619,0.9615,0.9604,0.9521,0.9501,0.9494,0.9432,0.9456,0.9453,0.945,0.9448,0.9346,0.9346,0,0,0,0,0,0,0.982,0.9802,0.9696,0.969,0.9748,0.9678,0.9665,0.9643,0.9574,0.9564,0.9605,0.9602,0.9508,0.9499,0.949,0.9454,0.9452,0.9448,0.9445,0.9346,0.9346,0.9346,0,0,0,0,0,0,0.9823,0.9811,0.97,0.9745,0.973,0.9675,0.965,0.9641,0.9621,0.9564,0.9553,0.9595,0.9508,0.9496,0.9455,0.945,0.9446,0.9442,0.9346,0.9346,0.9346,0.9382,0,0,0,0,0,0,0.9828,0.9813,0.9803,0.9745,0.9728,0.9669,0.965,0.9639,0.9614,0.9611,0.9551,0.9541,0.9507,0.9462,0.9451,0.9444,0.9439,0.9346,0.9346,0.9346,0.9381,0.9383,0.9385,0,0,0,0,0,0.9833,0.9817,0.9803,0.9791,0.9715,0.9669,0.9659,0.962,0.9614,0.9604,0.9566,0.9543,0.9452,0.9458,0.9446,0.9437,0.9347,0.9346,0.9346,0.9381,0.9383,0.9385,0,0,0,0,0,0,0.9874,0.9809,0.9793,0.9758,0.9719,0.9661,0.9646,0.9624,0.9586,0.9584,0.9537,0.9524,0.9487,0.9458,0.9466,0.9407,0.9397,0.9394,0.9428,0.9429,0.9431,0.9439,0.9435,0,0,0,0,0,0.988,0.985,0.9793,0.9767,0.9749,0.9701,0.968,0.9654,0.9611,0.9594,0.9554,0.9513,0.9475,0.9451,0.9412,0.9377,0.9362,0.9365,0.9367,0.9368,0.9366,0.9344,0.9344,0.9344,0.9344,0.9344,0,0,0.989,0.985,0.9834,0.9775,0.9742,0.971,0.9688,0.9655,0.963,0.9589,0.9548,0.9517,0.9468,0.943,0.9411,0.9404,0.9363,0.9368,0.937,0.9366,0.9343,0.9343,0.9343,0.9344,0.9344,0.9344,0,0,0.9892,0.986,0.9835,0.9803,0.9754,0.9722,0.9716,0.966,0.9639,0.9597,0.9566,0.9534,0.947,0.9436,0.941,0.9399,0.9376,0.9388,0.9397,0.9376,0.9376,0.9376,0.9371,0.937,0.9386,0.9386,0.9386,0,0.9911,0.9863,0.9824,0.9793,0.9767,0.973,0.9703,0.9673,0.9614,0.9596,0.959,0.9508,0.9472,0.9425,0.9422,0.9403,0.9393,0.9394,0.938,0.9379,0.9378,0.9373,0.9371,0.9388,0.9387,0.9387,0.9387,0,0.9887,0.9854,0.984,0.9785,0.9757,0.9729,0.9684,0.966,0.9637,0.9605,0.9563,0.9518,0.947,0.9457,0.9433,0.9406,0.9403,0.9389,0.9378,0.938,0.9374,0.9372,0.939,0.939,0.9389,0.9389,0,0,0.9913,0.9837,0.9832,0.9807,0.975,0.9723,0.9691,0.9646,0.9626,0.9586,0.9557,0.9504,0.949,0.9461,0.9432,0.9414,0.9407,0.9402,0.94,0.9404,0.9373,0.9384,0.9382,0.9392,0.9391,0.9391,0.9377,0,0.9907,0.9851,0.9815,0.9772,0.974,0.9704,0.9677,0.9638,0.9607,0.9575,0.954,0.9502,0.9488,0.947,0.945,0.9412,0.94,0.9413,0.9363,0.9362,0.9376,0.9379,0.939,0.9379,0.9374,0.9374,0.9373,0,0.9892,0.9854,0.9809,0.9755,0.974,0.9717,0.9671,0.9641,0.9596,0.9574,0.9542,0.9513,0.9477,0.9469,0.9418,0.9427,0.9405,0.9383,0.9382,0.9375,0.9367,0.9371,0.9375,0.9373,0.937,0.937,0.937,0,0.9914,0.9852,0.9816,0.9796,0.9732,0.9716,0.9688,0.9643,0.9618,0.9578,0.956,0.9516,0.9491,0.9457,0.9417,0.9415,0.9369,0.9358,0.9349,0.935,0.934,0.9341,0.9339,0.9327,0.9327,0.9327,0.9327,0,0.991,0.9883,0.9825,0.9804,0.9772,0.9731,0.97,0.9669,0.963,0.96,0.9566,0.9538,0.9487,0.9453,0.9421,0.9382,0.9371,0.9352,0.9344,0.9355,0.9357,0.9339,0.9338,0.9327,0.9327,0.9327,0.9327,0,0.9929,0.9889,0.9848,0.9792,0.9777,0.9756,0.9707,0.9684,0.9651,0.9614,0.9603,0.9552,0.9509,0.9466,0.9409,0.9387,0.9349,0.9338,0.9365,0.936,0.9353,0.9354,0.9339,0.9334,0.9326,0.9326,0.9327,0,0.9929,0.9908,0.9849,0.9828,0.9801,0.9767,0.9741,0.9699,0.9673,0.9619,0.9602,0.9558,0.952,0.9454,0.941,0.9366,0.9353,0.9351,0.9346,0.9357,0.9352,0.9353,0.935,0.9352,0.9352,0.9353,0.9353,0,0.9932,0.9914,0.9879,0.9836,0.9807,0.9771,0.9734,0.9717,0.9667,0.964,0.9597,0.9568,0.951,0.9465,0.9416,0.9385,0.936,0.9355,0.935,0.9361,0.9377,0.9367,0.9369,0.9355,0.9355,0.9355,0.9355,0.9355,0.9941,0.992,0.9876,0.9837,0.9805,0.9771,0.9746,0.9711,0.9676,0.9626,0.9603,0.9559,0.9513,0.9444,0.9415,0.9379,0.9372,0.9365,0.9364,0.9362,0.9365,0.9384,0.937,0.937,0.937,0.937,0.9369,0,0.9942,0.9912,0.9877,0.9826,0.9796,0.9777,0.9734,0.9709,0.9672,0.9632,0.9596,0.9546,0.9503,0.9457,0.941,0.9391,0.9378,0.938,0.9381,0.9374,0.9374,0.9383,0.9391,0.9391,0.9391,0.9391,0.9391,0.9391,0.9939,0.9902,0.9879,0.9825,0.9795,0.9754,0.9731,0.9699,0.9666,0.9613,0.9578,0.9548,0.9505,0.9455,0.9414,0.9401,0.9385,0.939,0.9374,0.9375,0.9374,0.9372,0.938,0.9388,0.9388,0.9376,0.9376,0.9376]},{"header":{"parameterUnit":"m.s-1","parameterCategory":1,"la1":30.2991,"la2":30.254,"lo1":-89.0895,"lo2":-89.0444,"dy":0.0017,"dx":0.0017,"nx":28,"ny":28,"refTime":"2024-02-04T09:00:00:Z","depth":0,"parameterNumber":3,"parameterNumberName":"V-component_of_WINDS"},"data":[0,0,0,0,0,0,0,0,0,0,0,0,0,0,0,0,0,0,0,0,0,0,0,0,0,0,0,0,0,0,0,0,0,0,0,0,0,0,0,0,0,0,0,0,0,0,0,0,0,0,0,0,0,0,0,0,0,0,-4.8308,-4.8309,0,-4.8416,-4.8417,-4.8418,-4.8363,-4.8361,-4.8358,-4.8355,-4.8463,-4.8468,-4.8474,0,0,0,0,0,0,0,0,0,0,0,0,0,-4.8054,-4.8059,-4.8308,-4.8309,-4.8311,-4.8415,-4.8417,-4.8418,-4.8364,-4.8361,-4.8357,-4.8354,-4.8461,-4.8468,-4.8474,0,0,0,0,0,0,0,0,0,0,0,0,0,-4.8163,-4.806,-4.8308,-4.8296,-4.8296,-4.8415,-4.8417,-4.8419,-4.8365,-4.836,-4.8356,-4.8352,-4.8459,-4.8467,-4.8475,-4.861,0,0,-4.85,-4.8504,0,0,0,0,0,0,0,0,-4.8157,-4.8172,-4.8297,-4.8297,-4.8297,-4.8372,-4.8367,-4.8483,-4.8366,-4.8339,-4.8355,-4.835,-4.8436,-4.8446,-4.8475,-4.8616,-4.862,-4.8501,-4.8506,-4.8509,-4.8512,0,0,0,0,0,0,0,-4.8149,-4.8167,-4.835,-4.8298,-4.8299,-4.8285,-4.8296,-4.8388,-4.841,-4.8341,-4.8337,-4.8351,-4.8435,-4.8467,-4.8477,-4.8622,-4.8501,-4.8508,-4.8513,-4.8516,-4.888,-4.8884,0,0,0,0,0,0,-4.8143,-4.8162,-4.8347,-4.8354,-4.8215,-4.8293,-4.8305,-4.8352,-4.8408,-4.8413,-4.8354,-4.8348,-4.8455,-4.8468,-4.8481,-4.8644,-4.8509,-4.8517,-4.8522,-4.8875,-4.8881,-4.8886,0,0,0,0,0,0,-4.8137,-4.816,-4.8343,-4.8257,-4.8279,-4.8302,-4.8355,-4.8357,-4.8389,-4.8419,-4.8422,-4.8383,-4.8452,-4.8469,-4.8579,-4.8647,-4.8521,-4.8528,-4.8869,-4.8877,-4.8883,-4.8972,0,0,0,0,0,0,-4.813,-4.8158,-4.821,-4.8258,-4.8284,-4.844,-4.8359,-4.8362,-4.8403,-4.8396,-4.8447,-4.8451,-4.845,-4.8567,-4.8587,-4.8656,-4.8535,-4.8863,-4.8873,-4.8881,-4.8963,-4.8981,-4.8997,0,0,0,0,0,-4.8121,-4.823,-4.8213,-4.8236,-4.835,-4.8444,-4.8459,-4.8456,-4.8409,-4.8461,-4.8481,-4.8449,-4.8636,-4.8579,-4.8601,-4.8674,-4.8859,-4.887,-4.888,-4.8955,-4.8977,-4.8996,0,0,0,0,0,0,-4.8189,-4.8236,-4.8218,-4.8346,-4.8392,-4.8435,-4.8501,-4.848,-4.8539,-4.853,-4.8523,-4.8535,-4.865,-4.8672,-4.8608,-4.8808,-4.874,-4.8756,-4.879,-4.8811,-4.8827,-4.882,-4.8542,0,0,0,0,0,-4.8219,-4.8292,-4.8329,-4.8438,-4.8462,-4.8478,-4.8519,-4.8513,-4.856,-4.8579,-4.8606,-4.8652,-4.8721,-4.8767,-4.8832,-4.8965,-4.8976,-4.9026,-4.9043,-4.9056,-4.907,-4.9144,-4.9167,-4.8921,-4.892,-4.892,0,0,-4.8281,-4.8316,-4.8362,-4.8453,-4.8488,-4.8564,-4.8495,-4.8577,-4.8634,-4.8591,-4.8698,-4.8719,-4.877,-4.8893,-4.8948,-4.8915,-4.9141,-4.907,-4.9081,-4.9087,-4.9157,-4.918,-4.9201,-4.8928,-4.8926,-4.8925,0,0,-4.8433,-4.8467,-4.8562,-4.8599,-4.8653,-4.8662,-4.8685,-4.8732,-4.8746,-4.8852,-4.8822,-4.8888,-4.9007,-4.9045,-4.908,-4.9247,-4.9221,-4.9268,-4.9357,-4.9428,-4.9448,-4.9465,-4.9526,-4.9548,-4.9282,-4.9282,-4.9282,0,-4.8504,-4.8618,-4.8613,-4.87,-4.8741,-4.8706,-4.8803,-4.8838,-4.891,-4.8939,-4.8901,-4.905,-4.9082,-4.9213,-4.9254,-4.9283,-4.9309,-4.9263,-4.9445,-4.9462,-4.9478,-4.9537,-4.9559,-4.9288,-4.9287,-4.9286,-4.9286,0,-4.8703,-4.8782,-4.8852,-4.8925,-4.8973,-4.9064,-4.9073,-4.9122,-4.9112,-4.9126,-4.9235,-4.9272,-4.9345,-4.9375,-4.9365,-4.9506,-4.9484,-4.9446,-4.9378,-4.9508,-4.9562,-4.9584,-4.9296,-4.9294,-4.9292,-4.9291,0,0,-4.8901,-4.897,-4.8996,-4.9029,-4.9086,-4.9148,-4.9236,-4.9308,-4.9352,-4.9402,-4.9477,-4.9579,-4.9544,-4.9584,-4.9578,-4.9641,-4.9773,-4.9595,-4.9596,-4.9628,-4.9931,-4.996,-4.9986,-4.9755,-4.9759,-4.9762,-4.9927,0,-4.9059,-4.9217,-4.9215,-4.9361,-4.9435,-4.9403,-4.9481,-4.9524,-4.9539,-4.9603,-4.9619,-4.9692,-4.964,-4.9664,-4.9725,-4.9744,-4.9834,-4.9732,-4.9825,-4.9828,-4.9815,-5.0014,-5.0046,-5.0199,-4.9948,-4.9952,-4.9954,0,-4.9265,-4.9324,-4.9477,-4.9525,-4.9555,-4.9625,-4.9692,-4.9754,-4.9802,-4.9808,-4.9853,-4.9838,-4.9928,-4.9856,-4.9981,-4.9912,-4.9949,-4.9965,-4.997,-4.998,-4.99,-5.0031,-5.0248,-5.0272,-4.9988,-4.9985,-4.9983,0,-4.9397,-4.9514,-4.9621,-4.965,-4.9707,-4.9758,-4.9784,-4.9828,-4.9871,-4.9929,-4.9957,-5.0024,-5.0061,-5.0112,-5.0115,-5.0063,-5.0242,-5.017,-5.025,-5.025,-5.029,-5.0288,-5.0518,-5.0312,-5.0312,-5.0311,-5.0311,0,-4.9574,-4.9669,-4.9682,-4.9748,-4.9854,-4.9851,-4.9955,-4.9977,-5.0016,-5.0086,-5.0061,-5.0127,-5.0126,-5.0193,-5.0195,-5.0299,-5.0315,-5.0323,-5.0323,-5.0326,-5.0326,-5.0352,-5.0342,-5.0317,-5.0316,-5.0315,-5.0314,0,-4.974,-4.9752,-4.9867,-4.9912,-4.9926,-5.0002,-5.004,-5.0103,-5.0116,-5.0204,-5.0224,-5.0244,-5.0321,-5.0329,-5.0418,-5.042,-5.0545,-5.0533,-5.053,-5.0528,-5.0609,-5.0602,-5.0865,-5.09,-5.067,-5.0672,-5.0674,0,-4.9853,-4.9926,-4.9979,-5.0025,-5.0054,-5.0127,-5.0172,-5.0172,-5.0219,-5.028,-5.0336,-5.0411,-5.0471,-5.0595,-5.0617,-5.0686,-5.0675,-5.0763,-5.0686,-5.0687,-5.0679,-5.0675,-5.0683,-5.0779,-5.0781,-5.0783,-5.0785,0,-5.0054,-5.0056,-5.0122,-5.0191,-5.0246,-5.0299,-5.0349,-5.0388,-5.0393,-5.0448,-5.0527,-5.0574,-5.0666,-5.0741,-5.0808,-5.0834,-5.0811,-5.0809,-5.0831,-5.0837,-5.0833,-5.0837,-5.0573,-5.0803,-5.0801,-5.08,-5.0799,-5.0798,-5.0198,-5.0262,-5.031,-5.0384,-5.0422,-5.047,-5.0532,-5.0553,-5.0619,-5.0695,-5.069,-5.0778,-5.0824,-5.0912,-5.0943,-5.1012,-5.0982,-5.1014,-5.1023,-5.1031,-5.104,-5.082,-5.1023,-5.1023,-5.1022,-5.1022,-5.1022,0,-5.0398,-5.0428,-5.0497,-5.0569,-5.0628,-5.0601,-5.0655,-5.0706,-5.0784,-5.083,-5.089,-5.0982,-5.1054,-5.1082,-5.1153,-5.1202,-5.1194,-5.1221,-5.1218,-5.1225,-5.1062,-5.1036,-5.1227,-5.1227,-5.1227,-5.1227,-5.1227,-5.1227,-5.051,-5.0617,-5.0626,-5.0751,-5.0779,-5.0867,-5.09,-5.0944,-5.0981,-5.1085,-5.1145,-5.1163,-5.1202,-5.1275,-5.1341,-5.1347,-5.1375,-5.1407,-5.1409,-5.1257,-5.1236,-5.1216,-5.1192,-5.1413,-5.1413,-5.1566,-5.1568,-5.1569]}]]